Other Public Products
Issued by NWS Charleston, SC

Current Version | Previous Version | Text Only | Print | Product List | Glossary Off
Versions: 1 2 3 4 5 6 7 8 9 10 11 12 13 14 15 16 17 18 19 20 21 22 23 24 25 26 27 28 29 30 31 32 33 34 35 36 37 38 39 40 41 42 43 44 45 46 47 48 49 50

000
FPUS82 KCHS 230127
OPUCHS

TEST...KCHS/KSAV Gateway Observations...TEST
National Weather Service Charleston SC
800 PM EST SUN JAN 22 2017

NOTE: "fair" indicates few or no clouds below 12,000 feet with no
significant weather and/or obstructions to visibility.

SCZ050-WAZ558-NCZ071-TXZ119-213-PAZ071-DCZ001-FLZ074-172-MI076-
NYZ176-178-MAZ016-IL014-TNZ027-NJZ106-GAZ044-MD014-230200-
...Gateway Observations for Charleston International...

CITY           SKY/WX    TMP DP  RH WIND       PRES   REMARKS
Chas Airport   TSTM      62  59  90 SE10      29.41R
Seattle        CLOUDY    44  37  76 E9        29.57R
Charlotte      RAIN      58  55  90 E15       29.38F
Dallas DFW     CLEAR     57  38  48 NW10      29.85R
Dallas Love    CLEAR     59  36  42 NW13G22   29.85R
Philladelphia  CLOUDY    48  46  93 NE10      29.69F
Wash National  CLOUDY    50  49  96 NE12      29.64R
Baltimore      CLOUDY    49  49 100 E13       29.64S FOG
Miami          PTCLDY    80  70  71 S15G23    29.69F
Detroit        FOG       47  47 100 E6        29.63S VSB 1/4
Newark         CLOUDY    49  45  86 NE6       29.74S
Laguardia      CLOUDY    49  42  77 NE16      29.76S
J F K          CLOUDY    48  46  93 E15       29.76R
Boston Logan   CLOUDY    40  38  93 NE17G25   29.93S WCI  31
Ft. Lauderdale PTCLDY    79  69  71 S14G22    29.67F
Chicago O`Hare CLOUDY    41  38  89 N7        29.64F
Chicago Midway CLOUDY    43  36  76 N16G23    29.63F
Houston Bush   CLEAR     63  42  46 NW12G21   29.79R
Houston Hobby  CLEAR     64  42  44 NW20G25   29.79R
Nashville      CLOUDY    58  54  86 N9        29.27F
Atlanta        CLOUDY    53  48  83 SW15G28   29.25R

$$

GAZ044-118-TXZ119-213-NCZ071-DCZ001-MDZ014-506-PAZ021-071-NJZ106-
NYZ176-178-MAZ106-OHZ011-021-055-MIZ076-KYZ091-ILZ014-INZ047-
MNZ060-230200-
...Gateway Observations for Savannah International...

CITY           SKY/WX    TMP DP  RH WIND       PRES   REMARKS
Savannah Arpt  CLOUDY    62  58  86 E15       29.33F
Atlanta        CLOUDY    53  48  83 SW15G28   29.25R
Charlotte      RAIN      58  55  90 E15       29.38F
Dallas DFW     CLEAR     57  38  48 NW10      29.85R
Houston Bush   CLEAR     63  42  46 NW12G21   29.79R
Wash National  CLOUDY    50  49  96 NE12      29.64R
Wash Dulles    LGT RAIN  49  47  93 N7        29.63S
Baltimore      CLOUDY    49  49 100 E13       29.64S FOG
Philadelphia   CLOUDY    48  46  93 NE10      29.69F
Newark         CLOUDY    49  45  86 NE6       29.74S
Laguardia      CLOUDY    49  42  77 NE16      29.76S
J F K          CLOUDY    48  46  93 E15       29.76R
Boston         CLOUDY    40  38  93 NE17G25   29.93S WCI  31
Pittsburg      CLOUDY    57  49  74 E8        29.55S
Akron          CLOUDY    54  49  83 NE9       29.56S
Cleveland      CLOUDY    46  40  79 N5        29.60S
Cincinnati     CLOUDY    58  48  69 NE16      29.44F
Columbus         N/A     56  48  74 NE12      29.48S
Detroit        FOG       47  47 100 E6        29.63S VSB 1/4
Chicago O`Hare CLOUDY    41  38  89 N7        29.64F
Minneapolis    CLOUDY    37  34  89 W6        29.76S WCI  32
Indianapolis   CLOUDY    55  50  83 N15       29.52R

$$




USA.gov is the U.S. government's official web portal to all federal, state and local government web resources and services.